Missoula, MT

8:04 PM MST on January 21, 2017 (GMT -0700)
Missoula

Weather History for KMSO - April, 2013

Change the Weather History Date:

Tuesday, April 23, 2013

  Actual Average Record
Temperature  
Mean Temperature 36 °F 47 °F  
Max Temperature 51 °F 60 °F 85 °F (2012)
Min Temperature 20 °F 34 °F 20 °F (2013)
Degree Days  
Heating Degree Days 29 18  
Month to date heating degree days 543 463  
Since 1 July heating degree days 6359 6646  
Cooling Degree Days 0 0  
Month to date cooling degree days 0 0  
Year to date cooling degree days 0 0  
Moisture  
Dew Point 22 °F    
Average Humidity 58    
Maximum Humidity 84    
Minimum Humidity 32    
Precipitation  
Precipitation T in 0.04 in 0.79 in (1925)
Month to date precipitation 0.58 0.93  
Year to date precipitation 2.64 3.48  
Snow  
Snow 0.00 in - - ()
Month to date snowfall 3.5  
Year to date snowfall 26.1  
Since 1 July snowfall 47.2  
Snow Depth 0.00 in    
Sea Level Pressure  
Sea Level Pressure 30.35 in    
Wind  
Wind Speed 3 mph (NNW)    
Max Wind Speed 18 mph    
Max Gust Speed 28 mph    
Visibility 10 miles    
Events      
T = Trace of Precipitation, MM = Missing Value Source: NWS Daily Summary

Daily Weather History Graph

Daily Weather History Graph

Search for Another Location

Airport or City:

Trip Planner

Search our weather history database for the weather conditions in past years. The results will help you decide how hot, cold, wet, or windy it might be!

Date:

Astronomy

Apr. 23, 2013 Rise Set
Actual Time 6:33 AM MDT 8:36 PM MDT
Civil Twilight 6:00 AM MDT 9:09 PM MDT
Nautical Twilight 5:20 AM MDT 9:49 PM MDT
Astronomical Twilight 4:35 AM MDT 10:35 PM MDT
Moon 6:29 PM MDT (4/23) 5:12 AM MDT (4/23)
Length of Visible Light 15h 08m
Length of Day
14h 02m
Waxing Gibbous, 94% of the Moon is Illuminated
Apr 23
Waxing Gibbous
Apr 25
Full
May 2
Last Quarter
May 9
New
May 17
First Quarter

Hourly Weather History & Observations

Time (MDT) Temp. Windchill Dew Point Humidity Pressure Visibility Wind Dir Wind Speed Gust Speed Precip Events Conditions
12:53 AM 26.1 °F 21.9 °F 17.1 °F 69% 30.47 in 10.0 mi NNE 3.5 mph - N/A   Clear
1:53 AM 24.1 °F - 17.1 °F 75% 30.46 in 10.0 mi Calm Calm - N/A   Clear
2:53 AM 24.1 °F - 17.1 °F 75% 30.45 in 10.0 mi Calm Calm - N/A   Clear
3:53 AM 21.9 °F 17.2 °F 17.1 °F 82% 30.44 in 10.0 mi North 3.5 mph - N/A   Clear
4:53 AM 21.0 °F - 16.0 °F 81% 30.44 in 10.0 mi Calm Calm - N/A   Clear
5:53 AM 23.0 °F - 17.1 °F 78% 30.43 in 10.0 mi Calm Calm - N/A   Clear
6:53 AM 21.0 °F - 17.1 °F 85% 30.44 in 10.0 mi Calm Calm - N/A   Clear
7:53 AM 24.1 °F - 19.9 °F 84% 30.44 in 10.0 mi Calm Calm - N/A   Clear
8:53 AM 27.0 °F - 21.0 °F 78% 30.43 in 10.0 mi Calm Calm - N/A   Clear
9:53 AM 30.0 °F - 23.0 °F 75% 30.40 in 10.0 mi Calm Calm - N/A   Clear
10:53 AM 34.0 °F - 24.1 °F 67% 30.38 in 10.0 mi Calm Calm - N/A   Clear
11:53 AM 36.0 °F - 24.1 °F 62% 30.38 in 10.0 mi Calm Calm - N/A   Clear
12:53 PM 41.0 °F 39.0 °F 24.1 °F 51% 30.35 in 10.0 mi West 3.5 mph - N/A   Partly Cloudy
1:53 PM 45.0 °F 41.2 °F 24.1 °F 44% 30.32 in 10.0 mi Variable 6.9 mph - N/A   Clear
2:53 PM 48.9 °F - 21.0 °F 33% 30.28 in 10.0 mi NNW 9.2 mph - N/A   Clear
3:53 PM 46.9 °F - 24.1 °F 41% 30.28 in 10.0 mi NNE 12.7 mph - N/A   Overcast
4:53 PM 48.9 °F - 21.0 °F 33% 30.27 in 10.0 mi NW 8.1 mph - N/A   Partly Cloudy
5:53 PM 50.0 °F - 21.0 °F 32% 30.24 in 10.0 mi West 6.9 mph - N/A   Mostly Cloudy
6:53 PM 46.9 °F - 24.1 °F 41% 30.27 in 10.0 mi North 10.4 mph - 0.00 in   Overcast
7:09 PM 46.4 °F 41.1 °F 28.4 °F 50% 30.19 in 10.0 mi NNE 11.5 mph 20.7 mph N/A   Overcast
7:53 PM 44.1 °F 42.5 °F 27.0 °F 51% 30.27 in 10.0 mi NNE 3.5 mph - N/A   Scattered Clouds
8:53 PM 43.0 °F 39.5 °F 27.0 °F 53% 30.29 in 10.0 mi North 5.8 mph - 0.00 in   Mostly Cloudy
9:53 PM 39.9 °F 36.7 °F 27.0 °F 60% 30.30 in 10.0 mi NW 4.6 mph - N/A   Mostly Cloudy
10:53 PM 37.0 °F - 26.1 °F 65% 30.30 in 10.0 mi Calm Calm - N/A   Clear
11:53 PM 30.9 °F - 25.0 °F 79% 30.32 in 10.0 mi Calm Calm - N/A   Clear